Year,Month,Day,Hour,Minute,Value (Times are PST for temperature in C)
2015,06,29,00,00,21.20
2015,06,29,00,01,21.20
2015,06,29,00,02,21.20
2015,06,29,00,03,21.20
2015,06,29,00,04,21.20
2015,06,29,00,05,21.20
2015,06,29,00,06,21.20
2015,06,29,00,07,21.20
2015,06,29,00,08,21.20
2015,06,29,00,09,21.20
2015,06,29,00,10,21.20
2015,06,29,00,11,21.20
2015,06,29,00,12,21.20
2015,06,29,00,13,21.20
2015,06,29,00,14,21.10
2015,06,29,00,15,21.10
2015,06,29,00,16,21.10
2015,06,29,00,17,21.10
2015,06,29,00,18,21.10
2015,06,29,00,19,21.10
2015,06,29,00,20,21.10
2015,06,29,00,21,21.10
2015,06,29,00,22,21.10
2015,06,29,00,23,21.10
2015,06,29,00,24,21.10
2015,06,29,00,25,21.20
2015,06,29,00,26,21.20
2015,06,29,00,27,21.20
2015,06,29,00,28,21.20
2015,06,29,00,29,21.20
2015,06,29,00,30,21.20
2015,06,29,00,31,21.20
2015,06,29,00,32,21.20
2015,06,29,00,33,21.20
2015,06,29,00,34,21.20
2015,06,29,00,35,21.30
2015,06,29,00,36,21.30
2015,06,29,00,37,21.30
2015,06,29,00,38,21.30
2015,06,29,00,39,21.40
2015,06,29,00,40,21.40
2015,06,29,00,41,21.40
2015,06,29,00,42,21.40
2015,06,29,00,43,21.40
2015,06,29,00,44,21.40
2015,06,29,00,45,21.40
2015,06,29,00,46,21.40
2015,06,29,00,47,21.30
2015,06,29,00,48,21.30
2015,06,29,00,49,21.40
2015,06,29,00,50,21.40
2015,06,29,00,51,21.50
2015,06,29,00,52,21.50
2015,06,29,00,53,21.50
2015,06,29,00,54,21.50
2015,06,29,00,55,21.50
2015,06,29,00,56,21.50
2015,06,29,00,57,21.50
2015,06,29,00,58,21.50
2015,06,29,00,59,21.50
2015,06,29,01,00,21.50
2015,06,29,01,01,21.40
2015,06,29,01,02,21.40
2015,06,29,01,03,21.40
2015,06,29,01,04,21.50
2015,06,29,01,05,21.50
2015,06,29,01,06,21.50
2015,06,29,01,07,21.40
2015,06,29,01,08,21.50
2015,06,29,01,09,21.50
2015,06,29,01,10,21.50
2015,06,29,01,11,21.50
2015,06,29,01,12,21.50
2015,06,29,01,13,21.50
2015,06,29,01,14,21.50
2015,06,29,01,15,21.50
2015,06,29,01,16,21.50
2015,06,29,01,17,21.40
2015,06,29,01,18,21.40
2015,06,29,01,19,21.40
2015,06,29,01,20,21.40
2015,06,29,01,21,21.40
2015,06,29,01,22,21.40
2015,06,29,01,23,21.30
2015,06,29,01,24,21.30
2015,06,29,01,25,21.30
2015,06,29,01,26,21.30
2015,06,29,01,27,21.30
2015,06,29,01,28,21.30
2015,06,29,01,29,21.30
2015,06,29,01,30,21.30
2015,06,29,01,31,21.30
2015,06,29,01,32,21.30
2015,06,29,01,33,21.30
2015,06,29,01,34,21.30
2015,06,29,01,35,21.30
2015,06,29,01,36,21.30
2015,06,29,01,37,21.30
2015,06,29,01,38,21.30
2015,06,29,01,39,21.30
2015,06,29,01,40,21.30
2015,06,29,01,41,21.30
2015,06,29,01,42,21.30
2015,06,29,01,43,21.30
2015,06,29,01,44,21.30
2015,06,29,01,45,21.30
2015,06,29,01,46,21.30
2015,06,29,01,47,21.30
2015,06,29,01,48,21.20
2015,06,29,01,49,21.20
2015,06,29,01,50,21.20
2015,06,29,01,51,21.20
2015,06,29,01,52,21.20
2015,06,29,01,53,21.20
2015,06,29,01,54,21.20
2015,06,29,01,55,21.20
2015,06,29,01,56,21.20
2015,06,29,01,57,21.20
2015,06,29,01,58,21.30
2015,06,29,01,59,21.30
2015,06,29,02,00,21.40
2015,06,29,02,01,21.40
2015,06,29,02,02,21.50
2015,06,29,02,03,21.50
2015,06,29,02,04,21.60
2015,06,29,02,05,21.60
2015,06,29,02,06,21.60
2015,06,29,02,07,21.70
2015,06,29,02,08,21.70
2015,06,29,02,09,21.80
2015,06,29,02,10,21.80
2015,06,29,02,11,21.80
2015,06,29,02,12,21.80
2015,06,29,02,13,21.80
2015,06,29,02,14,21.70
2015,06,29,02,15,21.70
2015,06,29,02,16,21.70
2015,06,29,02,17,21.60
2015,06,29,02,18,21.60
2015,06,29,02,19,21.50
2015,06,29,02,20,21.50
2015,06,29,02,21,21.40
2015,06,29,02,22,21.40
2015,06,29,02,23,21.30
2015,06,29,02,24,21.30
2015,06,29,02,25,21.20
2015,06,29,02,26,21.20
2015,06,29,02,27,21.20
2015,06,29,02,28,21.10
2015,06,29,02,29,21.10
2015,06,29,02,30,21.10
2015,06,29,02,31,21.10
2015,06,29,02,32,21.10
2015,06,29,02,33,21.00
2015,06,29,02,34,21.00
2015,06,29,02,35,21.00
2015,06,29,02,36,21.00
2015,06,29,02,37,20.90
2015,06,29,02,38,20.90
2015,06,29,02,39,20.90
2015,06,29,02,40,20.90
2015,06,29,02,41,20.90
2015,06,29,02,42,20.80
2015,06,29,02,43,20.80
2015,06,29,02,44,20.80
2015,06,29,02,45,20.80
2015,06,29,02,46,20.80
2015,06,29,02,47,20.80
2015,06,29,02,48,20.90
2015,06,29,02,49,20.90
2015,06,29,02,50,20.90
2015,06,29,02,51,20.90
2015,06,29,02,52,21.00
2015,06,29,02,53,21.00
2015,06,29,02,54,21.00
2015,06,29,02,55,21.00
2015,06,29,02,56,21.10
2015,06,29,02,57,21.10
2015,06,29,02,58,21.10
2015,06,29,02,59,21.10
2015,06,29,03,00,21.10
2015,06,29,03,01,21.10
2015,06,29,03,02,21.20
2015,06,29,03,03,21.20
2015,06,29,03,04,21.20
2015,06,29,03,05,21.30
2015,06,29,03,06,21.30
2015,06,29,03,07,21.40
2015,06,29,03,08,21.50
2015,06,29,03,09,21.50
2015,06,29,03,10,21.60
2015,06,29,03,11,21.70
2015,06,29,03,12,21.70
2015,06,29,03,13,21.80
2015,06,29,03,14,21.80
2015,06,29,03,15,21.90
2015,06,29,03,16,21.90
2015,06,29,03,17,21.90
2015,06,29,03,18,21.90
2015,06,29,03,19,21.90
2015,06,29,03,20,21.80
2015,06,29,03,21,21.80
2015,06,29,03,22,21.80
2015,06,29,03,23,21.80
2015,06,29,03,24,21.80
2015,06,29,03,25,21.80
2015,06,29,03,26,21.80
2015,06,29,03,27,21.80
2015,06,29,03,28,21.80
2015,06,29,03,29,21.90
2015,06,29,03,30,21.90
2015,06,29,03,31,21.90
2015,06,29,03,32,21.90
2015,06,29,03,33,21.90
2015,06,29,03,34,21.90
2015,06,29,03,35,21.90
2015,06,29,03,36,21.90
2015,06,29,03,37,21.90
2015,06,29,03,38,21.80
2015,06,29,03,39,21.80
2015,06,29,03,40,21.80
2015,06,29,03,41,21.70
2015,06,29,03,42,21.70
2015,06,29,03,43,21.70
2015,06,29,03,44,21.70
2015,06,29,03,45,21.70
2015,06,29,03,46,21.70
2015,06,29,03,47,21.70
2015,06,29,03,48,21.70
2015,06,29,03,49,21.70
2015,06,29,03,50,21.70
2015,06,29,03,51,21.70
2015,06,29,03,52,21.70
2015,06,29,03,53,21.70
2015,06,29,03,54,21.70
2015,06,29,03,55,21.70
2015,06,29,03,56,21.70
2015,06,29,03,57,21.70
2015,06,29,03,58,21.70
2015,06,29,03,59,21.70
2015,06,29,04,00,21.70
2015,06,29,04,01,21.70
2015,06,29,04,02,21.60
2015,06,29,04,03,21.60
2015,06,29,04,04,21.60
2015,06,29,04,05,21.60
2015,06,29,04,06,21.60
2015,06,29,04,07,21.60
2015,06,29,04,08,21.60
2015,06,29,04,09,21.60
2015,06,29,04,10,21.60
2015,06,29,04,11,21.50
2015,06,29,04,12,21.50
2015,06,29,04,13,21.50
2015,06,29,04,14,21.40
2015,06,29,04,15,21.40
2015,06,29,04,16,21.40
2015,06,29,04,17,21.30
2015,06,29,04,18,21.30
2015,06,29,04,19,21.30
2015,06,29,04,20,21.20
2015,06,29,04,21,21.20
2015,06,29,04,22,21.20
2015,06,29,04,23,21.20
2015,06,29,04,24,21.20
2015,06,29,04,25,21.10
2015,06,29,04,26,21.10
2015,06,29,04,27,21.10
2015,06,29,04,28,21.00
2015,06,29,04,29,21.00
2015,06,29,04,30,21.00
2015,06,29,04,31,20.90
2015,06,29,04,32,20.90
2015,06,29,04,33,20.90
2015,06,29,04,34,20.80
2015,06,29,04,35,20.80
2015,06,29,04,36,20.80
2015,06,29,04,37,20.80
2015,06,29,04,38,20.80
2015,06,29,04,39,20.70
2015,06,29,04,40,20.70
2015,06,29,04,41,20.70
2015,06,29,04,42,20.70
2015,06,29,04,43,20.60
2015,06,29,04,44,20.60
2015,06,29,04,45,20.60
2015,06,29,04,46,20.60
2015,06,29,04,47,20.50
2015,06,29,04,48,20.50
2015,06,29,04,49,20.50
2015,06,29,04,50,20.40
2015,06,29,04,51,20.40
2015,06,29,04,52,20.40
2015,06,29,04,53,20.40
2015,06,29,04,54,20.30
2015,06,29,04,55,20.30
2015,06,29,04,56,20.30
2015,06,29,04,57,20.30
2015,06,29,04,58,20.30
2015,06,29,04,59,20.30
2015,06,29,05,00,20.30
2015,06,29,05,01,20.20
2015,06,29,05,02,20.20
2015,06,29,05,03,20.20
2015,06,29,05,04,20.20
2015,06,29,05,05,20.20
2015,06,29,05,06,20.20
2015,06,29,05,07,20.20
2015,06,29,05,08,20.20
2015,06,29,05,09,20.20
2015,06,29,05,10,20.20
2015,06,29,05,11,20.20
2015,06,29,05,12,20.20
2015,06,29,05,13,20.20
2015,06,29,05,14,20.20
2015,06,29,05,15,20.20
2015,06,29,05,16,20.10
2015,06,29,05,17,20.10
2015,06,29,05,18,20.10
2015,06,29,05,19,20.10
2015,06,29,05,20,20.10
2015,06,29,05,21,20.10
2015,06,29,05,22,20.10
2015,06,29,05,23,20.00
2015,06,29,05,24,20.00
2015,06,29,05,25,20.00
2015,06,29,05,26,20.00
2015,06,29,05,27,20.00
2015,06,29,05,28,20.00
2015,06,29,05,29,20.00
2015,06,29,05,30,20.00
2015,06,29,05,31,20.00
2015,06,29,05,32,20.00
2015,06,29,05,33,19.90
2015,06,29,05,34,19.90
2015,06,29,05,35,19.90
2015,06,29,05,36,19.90
2015,06,29,05,37,19.90
2015,06,29,05,38,19.90
2015,06,29,05,39,19.90
2015,06,29,05,40,19.80
2015,06,29,05,41,19.80
2015,06,29,05,42,19.80
2015,06,29,05,43,19.80
2015,06,29,05,44,19.80
2015,06,29,05,45,19.80
2015,06,29,05,46,19.70
2015,06,29,05,47,19.60
2015,06,29,05,48,19.50
2015,06,29,05,49,19.30
2015,06,29,05,50,19.10
2015,06,29,05,51,18.90
2015,06,29,05,52,18.70
2015,06,29,05,53,18.60
2015,06,29,05,54,18.40
2015,06,29,05,55,18.30
2015,06,29,05,56,18.20
2015,06,29,05,57,18.10
2015,06,29,05,58,18.00
2015,06,29,05,59,17.90
2015,06,29,06,00,17.90
2015,06,29,06,01,17.80
2015,06,29,06,02,17.80
2015,06,29,06,03,17.70
2015,06,29,06,04,17.60
2015,06,29,06,05,17.60
2015,06,29,06,06,17.50
2015,06,29,06,07,17.40
2015,06,29,06,08,17.40
2015,06,29,06,09,17.30
2015,06,29,06,10,17.30
2015,06,29,06,11,17.20
2015,06,29,06,12,17.20
2015,06,29,06,13,17.20
2015,06,29,06,14,17.20
2015,06,29,06,15,17.20
2015,06,29,06,16,17.20
2015,06,29,06,17,17.30
2015,06,29,06,18,17.30
2015,06,29,06,19,17.30
2015,06,29,06,20,17.30
2015,06,29,06,21,17.40
2015,06,29,06,22,17.40
2015,06,29,06,23,17.40
2015,06,29,06,24,17.40
2015,06,29,06,25,17.40
2015,06,29,06,26,17.40
2015,06,29,06,27,17.40
2015,06,29,06,28,17.40
2015,06,29,06,29,17.40
2015,06,29,06,30,17.40
2015,06,29,06,31,17.40
2015,06,29,06,32,17.40
2015,06,29,06,33,17.40
2015,06,29,06,34,17.30
2015,06,29,06,35,17.30
2015,06,29,06,36,17.30
2015,06,29,06,37,17.30
2015,06,29,06,38,17.30
2015,06,29,06,39,17.30
2015,06,29,06,40,17.30
2015,06,29,06,41,17.30
2015,06,29,06,42,17.30
2015,06,29,06,43,17.30
2015,06,29,06,44,17.30
2015,06,29,06,45,17.30
2015,06,29,06,46,17.30
2015,06,29,06,47,17.30
2015,06,29,06,48,17.30
2015,06,29,06,49,17.30
2015,06,29,06,50,17.40
2015,06,29,06,51,17.40
2015,06,29,06,52,17.50
2015,06,29,06,53,17.50
2015,06,29,06,54,17.60
2015,06,29,06,55,17.60
2015,06,29,06,56,17.70
2015,06,29,06,57,17.80
2015,06,29,06,58,17.90
2015,06,29,06,59,18.00
2015,06,29,07,00,18.10
2015,06,29,07,01,18.10
2015,06,29,07,02,18.20
2015,06,29,07,03,18.30
2015,06,29,07,04,18.40
2015,06,29,07,05,18.50
2015,06,29,07,06,18.60
2015,06,29,07,07,18.70
2015,06,29,07,08,18.80
2015,06,29,07,09,19.00
2015,06,29,07,10,19.10
2015,06,29,07,11,19.20
2015,06,29,07,12,19.20
2015,06,29,07,13,19.30
2015,06,29,07,14,19.30
2015,06,29,07,15,19.40
2015,06,29,07,16,19.40
2015,06,29,07,17,19.50
2015,06,29,07,18,19.50
2015,06,29,07,19,19.50
2015,06,29,07,20,19.50
2015,06,29,07,21,19.50
2015,06,29,07,22,19.40
2015,06,29,07,23,19.40
2015,06,29,07,24,19.40
2015,06,29,07,25,19.40
2015,06,29,07,26,19.40
2015,06,29,07,27,19.40
2015,06,29,07,28,19.40
2015,06,29,07,29,19.40
2015,06,29,07,30,19.40
2015,06,29,07,31,19.40
2015,06,29,07,32,19.40
2015,06,29,07,33,19.40
2015,06,29,07,34,19.40
2015,06,29,07,35,19.40
2015,06,29,07,36,19.50
2015,06,29,07,37,19.50
2015,06,29,07,38,19.50
2015,06,29,07,39,19.50
2015,06,29,07,40,19.50
2015,06,29,07,41,19.50
2015,06,29,07,42,19.60
2015,06,29,07,43,19.60
2015,06,29,07,44,19.50
2015,06,29,07,45,19.50
2015,06,29,07,46,19.40
2015,06,29,07,47,19.40
2015,06,29,07,48,19.30
2015,06,29,07,49,19.30
2015,06,29,07,50,19.30
2015,06,29,07,51,19.30
2015,06,29,07,52,19.30
2015,06,29,07,53,19.30
2015,06,29,07,54,19.30
2015,06,29,07,55,19.30
2015,06,29,07,56,19.30
2015,06,29,07,57,19.40
2015,06,29,07,58,19.40
2015,06,29,07,59,19.50
2015,06,29,08,00,19.60
2015,06,29,08,01,19.60
2015,06,29,08,02,19.70
2015,06,29,08,03,19.80
2015,06,29,08,04,19.80
2015,06,29,08,05,19.90
2015,06,29,08,06,19.90
2015,06,29,08,07,19.90
2015,06,29,08,08,19.90
2015,06,29,08,09,20.00
2015,06,29,08,10,20.00
2015,06,29,08,11,20.10
2015,06,29,08,12,20.10
2015,06,29,08,13,20.20
2015,06,29,08,14,20.20
2015,06,29,08,15,20.30
2015,06,29,08,16,20.30
2015,06,29,08,17,20.30
2015,06,29,08,18,20.30
2015,06,29,08,19,20.30
2015,06,29,08,20,20.30
2015,06,29,08,21,20.30
2015,06,29,08,22,20.30
2015,06,29,08,23,20.30
2015,06,29,08,24,20.30
2015,06,29,08,25,20.40
2015,06,29,08,26,20.40
2015,06,29,08,27,20.40
2015,06,29,08,28,20.40
2015,06,29,08,29,20.40
2015,06,29,08,30,20.40
2015,06,29,08,31,20.40
2015,06,29,08,32,20.40
2015,06,29,08,33,20.40
2015,06,29,08,34,20.40
2015,06,29,08,35,20.40
2015,06,29,08,36,20.40
2015,06,29,08,37,20.40
2015,06,29,08,38,20.40
2015,06,29,08,39,20.40
2015,06,29,08,40,20.30
2015,06,29,08,41,20.30
2015,06,29,08,42,20.30
2015,06,29,08,43,20.30
2015,06,29,08,44,20.20
2015,06,29,08,45,20.20
2015,06,29,08,46,20.10
2015,06,29,08,47,20.10
2015,06,29,08,48,20.10
2015,06,29,08,49,20.10
2015,06,29,08,50,20.10
2015,06,29,08,51,20.10
2015,06,29,08,52,20.10
2015,06,29,08,53,20.10
2015,06,29,08,54,20.10
2015,06,29,08,55,20.10
2015,06,29,08,56,20.20
2015,06,29,08,57,20.20
2015,06,29,08,58,20.20
2015,06,29,08,59,20.30
2015,06,29,09,00,20.30
2015,06,29,09,01,20.30
2015,06,29,09,02,20.30
2015,06,29,09,03,20.40
2015,06,29,09,04,20.40
2015,06,29,09,05,20.30
2015,06,29,09,06,20.40
2015,06,29,09,07,20.40
2015,06,29,09,08,20.50
2015,06,29,09,09,20.60
2015,06,29,09,10,20.70
2015,06,29,09,11,20.80
2015,06,29,09,12,20.90
2015,06,29,09,13,21.00
2015,06,29,09,14,21.10
2015,06,29,09,15,21.20
2015,06,29,09,16,21.20
2015,06,29,09,17,21.30
2015,06,29,09,18,21.30
2015,06,29,09,19,21.30
2015,06,29,09,20,21.30
2015,06,29,09,21,21.40
2015,06,29,09,22,21.50
2015,06,29,09,23,21.60
2015,06,29,09,24,21.60
2015,06,29,09,25,21.50
2015,06,29,09,26,21.40
2015,06,29,09,27,21.30
2015,06,29,09,28,21.30
2015,06,29,09,29,21.20
2015,06,29,09,30,21.20
2015,06,29,09,31,21.20
2015,06,29,09,32,21.20
2015,06,29,09,33,21.30
2015,06,29,09,34,21.40
2015,06,29,09,35,21.50
2015,06,29,09,36,21.60
2015,06,29,09,37,21.70
2015,06,29,09,38,21.80
2015,06,29,09,39,21.90
2015,06,29,09,40,21.90
2015,06,29,09,41,21.90
2015,06,29,09,42,21.80
2015,06,29,09,43,21.80
2015,06,29,09,44,21.90
2015,06,29,09,45,21.90
2015,06,29,09,46,21.90
2015,06,29,09,47,21.90
2015,06,29,09,48,21.90
2015,06,29,09,49,21.90
2015,06,29,09,50,22.00
2015,06,29,09,51,22.00
2015,06,29,09,52,22.00
2015,06,29,09,53,22.10
2015,06,29,09,54,22.10
2015,06,29,09,55,22.10
2015,06,29,09,56,22.10
2015,06,29,09,57,22.10
2015,06,29,09,58,22.10
2015,06,29,09,59,22.10
2015,06,29,10,00,22.10
2015,06,29,10,01,22.10
2015,06,29,10,02,22.10
2015,06,29,10,03,22.00
2015,06,29,10,04,22.00
2015,06,29,10,05,22.00
2015,06,29,10,06,22.00
2015,06,29,10,07,22.00
2015,06,29,10,08,22.00
2015,06,29,10,09,22.00
2015,06,29,10,10,22.00
2015,06,29,10,11,22.10
2015,06,29,10,12,22.10
2015,06,29,10,13,22.10
2015,06,29,10,14,22.10
2015,06,29,10,15,22.20
2015,06,29,10,16,22.20
2015,06,29,10,17,22.30
2015,06,29,10,18,22.30
2015,06,29,10,19,22.40
2015,06,29,10,20,22.50
2015,06,29,10,21,22.60
2015,06,29,10,22,22.60
2015,06,29,10,23,22.70
2015,06,29,10,24,22.80
2015,06,29,10,25,22.90
2015,06,29,10,26,22.90
2015,06,29,10,27,22.90
2015,06,29,10,28,23.00
2015,06,29,10,29,23.00
2015,06,29,10,30,23.00
2015,06,29,10,31,23.00
2015,06,29,10,32,23.10
2015,06,29,10,33,23.10
2015,06,29,10,34,23.10
2015,06,29,10,35,23.10
2015,06,29,10,36,23.10
2015,06,29,10,37,23.10
2015,06,29,10,38,23.10
2015,06,29,10,39,23.10
2015,06,29,10,40,23.20
2015,06,29,10,41,23.20
2015,06,29,10,42,23.30
2015,06,29,10,43,23.30
2015,06,29,10,44,23.40
2015,06,29,10,45,23.30
2015,06,29,10,46,23.30
2015,06,29,10,47,23.20
2015,06,29,10,48,23.20
2015,06,29,10,49,23.10
2015,06,29,10,50,23.10
2015,06,29,10,51,23.10
2015,06,29,10,52,23.20
2015,06,29,10,53,23.20
2015,06,29,10,54,23.20
2015,06,29,10,55,23.20
2015,06,29,10,56,23.20
2015,06,29,10,57,23.20
2015,06,29,10,58,23.20
2015,06,29,10,59,23.20
2015,06,29,11,00,23.20
2015,06,29,11,01,23.20
2015,06,29,11,02,23.20
2015,06,29,11,03,23.30
2015,06,29,11,04,23.30
2015,06,29,11,05,23.30
2015,06,29,11,06,23.30
2015,06,29,11,07,23.30
2015,06,29,11,08,23.20
2015,06,29,11,09,23.10
2015,06,29,11,10,23.10
2015,06,29,11,11,23.10
2015,06,29,11,12,23.20
2015,06,29,11,13,23.10
2015,06,29,11,14,23.20
2015,06,29,11,15,23.20
2015,06,29,11,16,23.30
2015,06,29,11,17,23.30
2015,06,29,11,18,23.30
2015,06,29,11,19,23.20
2015,06,29,11,20,23.20
2015,06,29,11,21,23.10
2015,06,29,11,22,23.10
2015,06,29,11,23,23.00
2015,06,29,11,24,23.00
2015,06,29,11,25,23.00
2015,06,29,11,26,23.00
2015,06,29,11,27,23.00
2015,06,29,11,28,23.00
2015,06,29,11,29,23.00
2015,06,29,11,30,23.00
2015,06,29,11,31,22.90
2015,06,29,11,32,22.90
2015,06,29,11,33,22.80
2015,06,29,11,34,22.80
2015,06,29,11,35,22.80
2015,06,29,11,36,22.80
2015,06,29,11,37,22.80
2015,06,29,11,38,22.80
2015,06,29,11,39,22.70
2015,06,29,11,40,22.70
2015,06,29,11,41,22.60
2015,06,29,11,42,22.60
2015,06,29,11,43,22.60
2015,06,29,11,44,22.60
2015,06,29,11,45,22.60
2015,06,29,11,46,22.60
2015,06,29,11,47,22.60
2015,06,29,11,48,22.70
2015,06,29,11,49,22.70
2015,06,29,11,50,22.70
2015,06,29,11,51,22.70
2015,06,29,11,52,22.70
2015,06,29,11,53,22.70
2015,06,29,11,54,22.70
2015,06,29,11,55,22.70
2015,06,29,11,56,22.70
2015,06,29,11,57,22.70
2015,06,29,11,58,22.80
2015,06,29,11,59,22.80
2015,06,29,12,00,22.80
2015,06,29,12,01,22.80
2015,06,29,12,02,22.90
2015,06,29,12,03,23.00
2015,06,29,12,04,23.00
2015,06,29,12,05,23.10
2015,06,29,12,06,23.10
2015,06,29,12,07,23.20
2015,06,29,12,08,23.20
2015,06,29,12,09,23.20
2015,06,29,12,10,23.20
2015,06,29,12,11,23.20
2015,06,29,12,12,23.20
2015,06,29,12,13,23.30
2015,06,29,12,14,23.30
2015,06,29,12,15,23.40
2015,06,29,12,16,23.50
2015,06,29,12,17,23.50
2015,06,29,12,18,23.60
2015,06,29,12,19,23.70
2015,06,29,12,20,23.80
2015,06,29,12,21,24.00
2015,06,29,12,22,24.10
2015,06,29,12,23,24.20
2015,06,29,12,24,24.30
2015,06,29,12,25,24.20
2015,06,29,12,26,24.20
2015,06,29,12,27,24.10
2015,06,29,12,28,24.00
2015,06,29,12,29,24.00
2015,06,29,12,30,23.90
2015,06,29,12,31,23.70
2015,06,29,12,32,23.60
2015,06,29,12,33,23.60
2015,06,29,12,34,23.50
2015,06,29,12,35,23.50
2015,06,29,12,36,23.50
2015,06,29,12,37,23.50
2015,06,29,12,38,23.50
2015,06,29,12,39,23.60
2015,06,29,12,40,23.60
2015,06,29,12,41,23.60
2015,06,29,12,42,23.70
2015,06,29,12,43,23.80
2015,06,29,12,44,23.90
2015,06,29,12,45,24.00
2015,06,29,12,46,24.00
2015,06,29,12,47,24.10
2015,06,29,12,48,24.20
2015,06,29,12,49,24.30
2015,06,29,12,50,24.30
2015,06,29,12,51,24.30
2015,06,29,12,52,24.30
2015,06,29,12,53,24.20
2015,06,29,12,54,24.10
2015,06,29,12,55,24.10
2015,06,29,12,56,24.00
2015,06,29,12,57,24.00
2015,06,29,12,58,24.10
2015,06,29,12,59,24.10
2015,06,29,13,00,24.20
2015,06,29,13,01,24.20
2015,06,29,13,02,24.10
2015,06,29,13,03,24.00
2015,06,29,13,04,23.90
2015,06,29,13,05,23.80
2015,06,29,13,06,23.80
2015,06,29,13,07,23.70
2015,06,29,13,08,23.60
2015,06,29,13,09,23.50
2015,06,29,13,10,23.40
2015,06,29,13,11,23.30
2015,06,29,13,12,23.30
2015,06,29,13,13,23.30
2015,06,29,13,14,23.40
2015,06,29,13,15,23.50
2015,06,29,13,16,23.60
2015,06,29,13,17,23.70
2015,06,29,13,18,23.80
2015,06,29,13,19,23.90
2015,06,29,13,20,23.90
2015,06,29,13,21,24.00
2015,06,29,13,22,24.00
2015,06,29,13,23,23.90
2015,06,29,13,24,23.90
2015,06,29,13,25,24.00
2015,06,29,13,26,24.00
2015,06,29,13,27,24.00
2015,06,29,13,28,23.90
2015,06,29,13,29,23.80
2015,06,29,13,30,23.80
2015,06,29,13,31,23.70
2015,06,29,13,32,23.80
2015,06,29,13,33,23.80
2015,06,29,13,34,23.80
2015,06,29,13,35,23.80
2015,06,29,13,36,23.70
2015,06,29,13,37,23.70
2015,06,29,13,38,23.70
2015,06,29,13,39,23.60
2015,06,29,13,40,23.60
2015,06,29,13,41,23.60
2015,06,29,13,42,23.60
2015,06,29,13,43,23.60
2015,06,29,13,44,23.60
2015,06,29,13,45,23.80
2015,06,29,13,46,23.90
2015,06,29,13,47,24.10
2015,06,29,13,48,24.30
2015,06,29,13,49,24.40
2015,06,29,13,50,24.50
2015,06,29,13,51,24.60
2015,06,29,13,52,24.70
2015,06,29,13,53,24.70
2015,06,29,13,54,24.70
2015,06,29,13,55,24.70
2015,06,29,13,56,24.70
2015,06,29,13,57,24.70
2015,06,29,13,58,24.60
2015,06,29,13,59,24.50
2015,06,29,14,00,24.40
2015,06,29,14,01,24.50
2015,06,29,14,02,24.50
2015,06,29,14,03,24.60
2015,06,29,14,04,24.60
2015,06,29,14,05,24.60
2015,06,29,14,06,24.60
2015,06,29,14,07,24.60
2015,06,29,14,08,24.60
2015,06,29,14,09,24.60
2015,06,29,14,10,24.70
2015,06,29,14,11,24.80
2015,06,29,14,12,24.80
2015,06,29,14,13,24.80
2015,06,29,14,14,24.80
2015,06,29,14,15,24.80
2015,06,29,14,16,24.80
2015,06,29,14,17,24.80
2015,06,29,14,18,24.70
2015,06,29,14,19,24.70
2015,06,29,14,20,24.70
2015,06,29,14,21,24.60
2015,06,29,14,22,24.60
2015,06,29,14,23,24.50
2015,06,29,14,24,24.40
2015,06,29,14,25,24.30
2015,06,29,14,26,24.10
2015,06,29,14,27,23.80
2015,06,29,14,28,23.60
2015,06,29,14,29,23.40
2015,06,29,14,30,23.30
2015,06,29,14,31,23.20
2015,06,29,14,32,23.20
2015,06,29,14,33,23.10
2015,06,29,14,34,23.10
2015,06,29,14,35,23.00
2015,06,29,14,36,22.90
2015,06,29,14,37,22.80
2015,06,29,14,38,22.70
2015,06,29,14,39,22.60
2015,06,29,14,40,22.60
2015,06,29,14,41,22.60
2015,06,29,14,42,22.80
2015,06,29,14,43,22.90
2015,06,29,14,44,22.90
2015,06,29,14,45,23.00
2015,06,29,14,46,22.90
2015,06,29,14,47,22.90
2015,06,29,14,48,22.90
2015,06,29,14,49,22.90
2015,06,29,14,50,22.90
2015,06,29,14,51,22.90
2015,06,29,14,52,23.00
2015,06,29,14,53,23.00
2015,06,29,14,54,23.10
2015,06,29,14,55,23.10
2015,06,29,14,56,23.10
2015,06,29,14,57,23.20
2015,06,29,14,58,23.20
2015,06,29,14,59,23.30
2015,06,29,15,00,23.40
2015,06,29,15,01,23.60
2015,06,29,15,02,23.70
2015,06,29,15,03,23.80
2015,06,29,15,04,23.80
2015,06,29,15,05,23.90
2015,06,29,15,06,23.90
2015,06,29,15,07,23.80
2015,06,29,15,08,23.80
2015,06,29,15,09,23.90
2015,06,29,15,10,23.90
2015,06,29,15,11,23.90
2015,06,29,15,12,23.90
2015,06,29,15,13,23.90
2015,06,29,15,14,23.80
2015,06,29,15,15,23.70
2015,06,29,15,16,23.60
2015,06,29,15,17,23.40
2015,06,29,15,18,23.30
2015,06,29,15,19,23.20
2015,06,29,15,20,23.20
2015,06,29,15,21,23.30
2015,06,29,15,22,23.30
2015,06,29,15,23,23.30
2015,06,29,15,24,23.40
2015,06,29,15,25,23.40
2015,06,29,15,26,23.40
2015,06,29,15,27,23.40
2015,06,29,15,28,23.30
2015,06,29,15,29,23.30
2015,06,29,15,30,23.20
2015,06,29,15,31,23.10
2015,06,29,15,32,23.00
2015,06,29,15,33,22.90
2015,06,29,15,34,22.90
2015,06,29,15,35,22.80
2015,06,29,15,36,22.80
2015,06,29,15,37,22.70
2015,06,29,15,38,22.60
2015,06,29,15,39,22.60
2015,06,29,15,40,22.50
2015,06,29,15,41,22.50
2015,06,29,15,42,22.40
2015,06,29,15,43,22.30
2015,06,29,15,44,22.30
2015,06,29,15,45,22.20
2015,06,29,15,46,22.30
2015,06,29,15,47,22.30
2015,06,29,15,48,22.30
2015,06,29,15,49,22.30
2015,06,29,15,50,22.20
2015,06,29,15,51,22.20
2015,06,29,15,52,22.20
2015,06,29,15,53,22.20
2015,06,29,15,54,22.20
2015,06,29,15,55,22.20
2015,06,29,15,56,22.10
2015,06,29,15,57,22.10
2015,06,29,15,58,22.10
2015,06,29,15,59,22.10
2015,06,29,16,00,22.10
2015,06,29,16,01,22.10
2015,06,29,16,02,22.10
2015,06,29,16,03,22.20
2015,06,29,16,04,22.30
2015,06,29,16,05,22.40
2015,06,29,16,06,22.40
2015,06,29,16,07,22.50
2015,06,29,16,08,22.50
2015,06,29,16,09,22.60
2015,06,29,16,10,22.60
2015,06,29,16,11,22.70
2015,06,29,16,12,22.80
2015,06,29,16,13,22.90
2015,06,29,16,14,23.00
2015,06,29,16,15,23.10
2015,06,29,16,16,23.10
2015,06,29,16,17,23.20
2015,06,29,16,18,23.30
2015,06,29,16,19,23.30
2015,06,29,16,20,23.30
2015,06,29,16,21,23.30
2015,06,29,16,22,23.30
2015,06,29,16,23,23.30
2015,06,29,16,24,23.30
2015,06,29,16,25,23.30
2015,06,29,16,26,23.20
2015,06,29,16,27,23.00
2015,06,29,16,28,22.90
2015,06,29,16,29,22.70
2015,06,29,16,30,22.50
2015,06,29,16,31,22.40
2015,06,29,16,32,22.30
2015,06,29,16,33,22.20
2015,06,29,16,34,22.10
2015,06,29,16,35,22.10
2015,06,29,16,36,22.00
2015,06,29,16,37,21.90
2015,06,29,16,38,21.80
2015,06,29,16,39,21.70
2015,06,29,16,40,21.70
2015,06,29,16,41,21.60
2015,06,29,16,42,21.50
2015,06,29,16,43,21.40
2015,06,29,16,44,21.30
2015,06,29,16,45,21.20
2015,06,29,16,46,21.10
2015,06,29,16,47,21.00
2015,06,29,16,48,20.90
2015,06,29,16,49,20.90
2015,06,29,16,50,20.90
2015,06,29,16,51,20.90
2015,06,29,16,52,20.90
2015,06,29,16,53,20.90
2015,06,29,16,54,20.90
2015,06,29,16,55,20.90
2015,06,29,16,56,21.00
2015,06,29,16,57,20.90
2015,06,29,16,58,20.90
2015,06,29,16,59,20.90
2015,06,29,17,00,20.90
2015,06,29,17,01,20.90
2015,06,29,17,02,20.90
2015,06,29,17,03,20.90
2015,06,29,17,04,20.90
2015,06,29,17,05,20.90
2015,06,29,17,06,21.00
2015,06,29,17,07,21.00
2015,06,29,17,08,21.10
2015,06,29,17,09,21.10
2015,06,29,17,10,21.20
2015,06,29,17,11,21.20
2015,06,29,17,12,21.20
2015,06,29,17,13,21.20
2015,06,29,17,14,21.20
2015,06,29,17,15,21.20
2015,06,29,17,16,21.20
2015,06,29,17,17,21.30
2015,06,29,17,18,21.40
2015,06,29,17,19,21.50